DLH600 EDDF-OIIE

Flight info

Callsign DLH600
Flight time N/A
Altitude 31000
Route CINDY8S/18 CINDY Z74 HAREM DCT ASLEP DCT TAKUT L603 BESNI/N0472F370 L605 MIQ DCT ALUTU DCT BIBAG L605 ESEGA DCT SASAL DCT INVED DCT ARTAT/N0476F390 UP975 ERGUN UL124 BONAM L319 OTENA L124 ZAJ R661 MIVAK MIVAK2X
Aircraft A346/H-SDE2E3GHIJ1J3J4J5LM1ORWXYZ/C

Departure

Time N/A
Airport Frankfurt Main Airport (EDDF)

Arrival

Time 2026-05-05 13:30
Airport Imam Khomeini International Airport (OIIE)
Time Latitude Longitude Altitude Speed Heading
2026-05-05 11:32 41.14232 33.76350 39961 ft 489 kts 117°
2026-05-05 11:33 41.11062 33.84278 39963 ft 489 kts 117°
2026-05-05 11:33 41.07862 33.92262 39955 ft 489 kts 117°
2026-05-05 11:34 41.04662 34.00228 39953 ft 490 kts 117°
2026-05-05 11:34 41.01452 34.08194 39948 ft 489 kts 117°
2026-05-05 11:35 40.98237 34.16151 39948 ft 489 kts 118°
2026-05-05 11:35 40.95015 34.24111 39945 ft 491 kts 118°
2026-05-05 11:36 40.91782 34.32067 39948 ft 490 kts 118°
2026-05-05 11:36 40.88544 34.40014 39947 ft 491 kts 118°
2026-05-05 11:37 40.85304 34.47952 39954 ft 490 kts 118°
2026-05-05 11:37 40.82058 34.55872 39944 ft 490 kts 118°
2026-05-05 11:38 40.78801 34.63798 39951 ft 491 kts 118°
2026-05-05 11:38 40.75713 34.71847 39949 ft 491 kts 114°
2026-05-05 11:39 40.73252 34.80264 39944 ft 492 kts 108°
2026-05-05 11:39 40.71307 34.88910 39947 ft 490 kts 106°
2026-05-05 11:40 40.69402 34.97548 39952 ft 490 kts 106°
2026-05-05 11:40 40.67501 35.06119 39953 ft 491 kts 107°
2026-05-05 11:41 40.65573 35.14741 39948 ft 490 kts 107°
2026-05-05 11:41 40.63624 35.23424 39950 ft 490 kts 107°
2026-05-05 11:42 40.61696 35.31984 39948 ft 490 kts 107°
2026-05-05 11:42 40.59750 35.40589 39947 ft 490 kts 107°
2026-05-05 11:43 40.57798 35.49180 39947 ft 489 kts 107°
2026-05-05 11:43 40.55839 35.57773 39955 ft 489 kts 107°
2026-05-05 11:44 40.53879 35.66347 39946 ft 489 kts 107°
2026-05-05 11:44 40.51912 35.74905 39948 ft 488 kts 107°
2026-05-05 11:45 40.49939 35.83460 39962 ft 488 kts 107°
2026-05-05 11:45 40.47961 35.92013 39956 ft 489 kts 108°
2026-05-05 11:46 40.45976 36.00561 39963 ft 489 kts 108°
2026-05-05 11:46 40.43981 36.09108 39949 ft 489 kts 108°
2026-05-05 11:47 40.41981 36.17651 39956 ft 489 kts 108°
2026-05-05 11:47 40.39977 36.26184 39945 ft 489 kts 108°
2026-05-05 11:48 40.36959 36.38969 39942 ft 488 kts 108°
2026-05-05 11:48 40.34941 36.47485 39941 ft 488 kts 108°
2026-05-05 11:49 40.32917 36.55994 39946 ft 488 kts 108°
2026-05-05 11:49 40.30885 36.64492 39982 ft 488 kts 109°
2026-05-05 11:50 40.28849 36.72983 39982 ft 488 kts 109°
2026-05-05 11:50 40.26808 36.81468 39977 ft 487 kts 109°
2026-05-05 11:51 40.24763 36.89941 39981 ft 487 kts 109°
2026-05-05 11:51 40.22711 36.98399 39976 ft 487 kts 109°
2026-05-05 11:52 40.20667 37.06798 39980 ft 487 kts 109°
2026-05-05 11:52 40.18607 37.15243 39973 ft 486 kts 109°
2026-05-05 11:53 40.16542 37.23667 39962 ft 486 kts 109°
2026-05-05 11:53 40.14470 37.32089 39960 ft 486 kts 110°
2026-05-05 11:54 40.12394 37.40499 39953 ft 485 kts 110°
2026-05-05 11:54 40.10315 37.48888 39950 ft 485 kts 110°
2026-05-05 11:55 40.08564 37.55916 39946 ft 485 kts 110°
2026-05-05 11:55 40.06248 37.64114 39939 ft 484 kts 112°
2026-05-05 11:56 40.03849 37.72340 39929 ft 484 kts 112°
2026-05-05 11:56 40.01444 37.80556 39926 ft 484 kts 113°
2026-05-05 11:57 39.99034 37.88766 39928 ft 484 kts 113°
2026-05-05 11:57 39.96620 37.96971 39914 ft 484 kts 113°
2026-05-05 11:58 39.94200 38.05163 39909 ft 483 kts 113°
2026-05-05 11:58 39.91776 38.13344 39911 ft 483 kts 113°
2026-05-05 11:59 39.89346 38.21519 39899 ft 483 kts 113°
2026-05-05 11:59 39.88130 38.25609 39901 ft 483 kts 113°
2026-05-05 12:00 39.81822 38.46684 39902 ft 484 kts 114°
2026-05-05 12:01 39.79367 38.54847 39904 ft 484 kts 114°
2026-05-05 12:01 39.76904 38.63005 39904 ft 484 kts 114°
2026-05-05 12:02 39.74436 38.71156 39903 ft 484 kts 114°
2026-05-05 12:02 39.71964 38.79303 39900 ft 484 kts 114°
2026-05-05 12:03 39.69483 38.87451 39906 ft 485 kts 114°
2026-05-05 12:03 39.66994 38.95595 39916 ft 485 kts 114°
2026-05-05 12:04 39.64518 39.03672 39911 ft 485 kts 114°
2026-05-05 12:04 39.62016 39.11823 39920 ft 486 kts 115°
2026-05-05 12:05 39.59500 39.19973 39925 ft 486 kts 115°
2026-05-05 12:05 39.56981 39.28122 39926 ft 486 kts 115°
2026-05-05 12:06 39.54451 39.36278 39928 ft 488 kts 115°
2026-05-05 12:06 39.51908 39.44447 39923 ft 489 kts 115°
2026-05-05 12:07 39.49639 39.52772 39919 ft 490 kts 111°
2026-05-05 12:07 39.47489 39.61169 39919 ft 491 kts 111°
2026-05-05 12:08 39.45333 39.69558 39929 ft 491 kts 112°
2026-05-05 12:08 39.43166 39.77943 39935 ft 491 kts 112°
2026-05-05 12:09 39.40992 39.86320 39921 ft 490 kts 112°
2026-05-05 12:09 39.38813 39.94700 39938 ft 491 kts 112°
2026-05-05 12:10 39.36626 40.03070 39928 ft 491 kts 112°
2026-05-05 12:10 39.34440 40.11402 39934 ft 492 kts 112°
2026-05-05 12:11 39.32238 40.19781 39927 ft 492 kts 112°
2026-05-05 12:11 39.30071 40.28181 39936 ft 493 kts 112°
2026-05-05 12:12 39.27906 40.36584 39937 ft 493 kts 112°
2026-05-05 12:12 39.25715 40.45044 39941 ft 492 kts 112°
2026-05-05 12:13 39.23547 40.53374 39939 ft 492 kts 112°
2026-05-05 12:13 39.21357 40.61760 39944 ft 492 kts 112°
2026-05-05 12:14 39.19163 40.70132 39945 ft 492 kts 112°
2026-05-05 12:14 39.16944 40.78570 39940 ft 493 kts 112°
2026-05-05 12:15 39.14731 40.86956 39958 ft 494 kts 112°
2026-05-05 12:15 39.12527 40.95282 39950 ft 494 kts 112°
2026-05-05 12:16 39.10303 41.03657 39936 ft 494 kts 113°
2026-05-05 12:16 39.08068 41.12046 39945 ft 495 kts 113°
2026-05-05 12:17 39.05826 41.20428 39943 ft 495 kts 113°
2026-05-05 12:17 39.03578 41.28809 39924 ft 495 kts 113°
2026-05-05 12:18 39.01327 41.37179 39927 ft 494 kts 113°
2026-05-05 12:18 38.99068 41.45540 39930 ft 494 kts 113°
2026-05-05 12:19 38.96804 41.53894 39932 ft 494 kts 113°
2026-05-05 12:19 38.94919 41.60838 39921 ft 494 kts 114°
2026-05-05 12:20 38.92643 41.69183 39931 ft 494 kts 114°
2026-05-05 12:20 38.90361 41.77521 39936 ft 494 kts 114°
2026-05-05 12:21 38.88076 41.85857 39925 ft 494 kts 114°
2026-05-05 12:21 38.85782 41.94195 39934 ft 495 kts 114°
2026-05-05 12:22 38.83478 42.02532 39936 ft 495 kts 114°
2026-05-05 12:22 38.81170 42.10862 39920 ft 495 kts 114°
2026-05-05 12:23 38.78856 42.19198 39944 ft 496 kts 115°
2026-05-05 12:23 38.76530 42.27537 39953 ft 496 kts 115°
2026-05-05 12:24 38.74198 42.35870 39956 ft 496 kts 115°
2026-05-05 12:24 38.71862 42.44203 39962 ft 497 kts 115°
2026-05-05 12:25 38.69513 42.52543 39968 ft 497 kts 115°
2026-05-05 12:25 38.67163 42.60867 39960 ft 497 kts 115°
2026-05-05 12:26 38.64807 42.69192 39954 ft 497 kts 116°
2026-05-05 12:26 38.62438 42.77523 39954 ft 498 kts 116°
2026-05-05 12:27 38.60064 42.85847 39958 ft 498 kts 116°
2026-05-05 12:27 38.57685 42.94168 39946 ft 498 kts 116°
2026-05-05 12:28 38.55294 43.02498 39957 ft 499 kts 116°
2026-05-05 12:28 38.52895 43.10829 39962 ft 499 kts 116°
2026-05-05 12:29 38.50491 43.19153 39965 ft 499 kts 116°
2026-05-05 12:29 38.48077 43.27468 39963 ft 498 kts 117°
2026-05-05 12:30 38.45283 43.35512 39964 ft 493 kts 123°
2026-05-05 12:30 38.41994 43.43166 39946 ft 491 kts 126°
2026-05-05 12:31 38.38662 43.50772 39963 ft 491 kts 126°
2026-05-05 12:31 38.35325 43.58383 39971 ft 491 kts 126°
2026-05-05 12:32 38.31986 43.65987 39943 ft 491 kts 126°
2026-05-05 12:32 38.28670 43.73527 39968 ft 491 kts 126°
2026-05-05 12:33 38.25349 43.81132 39974 ft 492 kts 124°
2026-05-05 12:33 38.22148 43.88842 39952 ft 493 kts 124°
2026-05-05 12:34 38.18945 43.96563 39970 ft 493 kts 124°
2026-05-05 12:34 38.15729 44.04252 39974 ft 492 kts 124°
2026-05-05 12:35 38.12501 44.11937 39944 ft 492 kts 124°
2026-05-05 12:35 38.09270 44.19611 39964 ft 492 kts 124°
2026-05-05 12:36 38.06034 44.27277 39962 ft 492 kts 125°
2026-05-05 12:36 38.02998 44.35120 39938 ft 496 kts 121°
2026-05-05 12:37 38.00078 44.43065 39957 ft 497 kts 121°
2026-05-05 12:37 37.97154 44.51003 39955 ft 497 kts 122°
2026-05-05 12:38 37.94219 44.58944 39914 ft 497 kts 122°
2026-05-05 12:38 37.91277 44.66892 39949 ft 499 kts 122°
2026-05-05 12:39 37.88308 44.74865 39933 ft 500 kts 123°
2026-05-05 12:39 37.85332 44.82840 39897 ft 501 kts 123°
2026-05-05 12:40 37.82341 44.90835 39913 ft 502 kts 123°
2026-05-05 12:40 37.79364 44.98774 39916 ft 502 kts 123°
2026-05-05 12:41 37.76363 45.06759 39859 ft 503 kts 123°
2026-05-05 12:41 37.73346 45.14761 39878 ft 504 kts 123°
2026-05-05 12:42 37.70327 45.22753 39885 ft 504 kts 123°
2026-05-05 12:42 37.67299 45.30747 39874 ft 504 kts 123°
2026-05-05 12:43 37.64264 45.38737 39884 ft 504 kts 123°
2026-05-05 12:43 37.61224 45.46720 39890 ft 504 kts 123°
2026-05-05 12:44 37.58178 45.54697 39887 ft 504 kts 123°
2026-05-05 12:44 37.55125 45.62667 39893 ft 504 kts 123°
2026-05-05 12:45 37.52248 45.70765 39897 ft 509 kts 118°
2026-05-05 12:45 37.49897 45.79239 39868 ft 513 kts 116°
2026-05-05 12:46 37.47624 45.87763 39891 ft 513 kts 116°
2026-05-05 12:46 37.45338 45.96278 39886 ft 513 kts 116°
2026-05-05 12:47 37.43042 46.04782 39865 ft 513 kts 116°
2026-05-05 12:47 37.40733 46.13294 39876 ft 513 kts 116°
2026-05-05 12:48 37.38418 46.21802 39883 ft 513 kts 116°
2026-05-05 12:48 37.36096 46.30306 39866 ft 513 kts 116°
2026-05-05 12:49 37.33771 46.38796 39909 ft 513 kts 116°
2026-05-05 12:49 37.31456 46.47222 39941 ft 513 kts 116°
2026-05-05 12:50 37.29119 46.55696 39918 ft 512 kts 116°
2026-05-05 12:50 37.26777 46.64168 39963 ft 513 kts 116°
2026-05-05 12:51 37.24426 46.72641 39973 ft 513 kts 116°
2026-05-05 12:51 37.22069 46.81100 39971 ft 513 kts 116°
2026-05-05 12:52 37.20109 46.88121 39954 ft 513 kts 116°
2026-05-05 12:52 37.17349 46.98005 39963 ft 513 kts 117°
2026-05-05 12:53 37.14976 47.06462 39964 ft 514 kts 117°
2026-05-05 12:53 37.12593 47.14916 39938 ft 514 kts 117°
2026-05-05 12:54 37.08997 47.27619 39942 ft 516 kts 117°
2026-05-05 12:55 37.06589 47.36098 39924 ft 516 kts 117°
2026-05-05 12:55 37.04186 47.44580 39936 ft 516 kts 117°
2026-05-05 12:56 37.01776 47.53058 39931 ft 516 kts 118°
2026-05-05 12:56 36.99358 47.61530 39895 ft 516 kts 117°
2026-05-05 12:57 36.96938 47.69977 39918 ft 515 kts 117°
2026-05-05 12:57 36.94516 47.78417 39926 ft 515 kts 117°
2026-05-05 12:58 36.92107 47.86774 39895 ft 512 kts 117°
2026-05-05 12:58 36.89685 47.95164 39931 ft 513 kts 117°
2026-05-05 12:59 36.87256 48.03544 39950 ft 513 kts 117°
2026-05-05 12:59 36.84819 48.11922 39957 ft 513 kts 118°
2026-05-05 13:00 36.81150 48.24486 39966 ft 513 kts 118°
2026-05-05 13:01 36.75351 48.40531 39955 ft 501 kts 129°
2026-05-05 13:01 36.71659 48.47862 39960 ft 498 kts 131°
2026-05-05 13:02 36.67932 48.55165 39959 ft 499 kts 131°
2026-05-05 13:02 36.64216 48.62471 39951 ft 499 kts 131°
2026-05-05 13:03 36.60490 48.69783 39947 ft 499 kts 131°
2026-05-05 13:03 36.56769 48.77075 39930 ft 499 kts 131°
2026-05-05 13:04 36.53045 48.84366 39948 ft 499 kts 131°
2026-05-05 13:04 36.49943 48.90438 39949 ft 499 kts 131°
2026-05-05 13:05 36.45577 48.98959 39928 ft 500 kts 131°
2026-05-05 13:05 36.42461 49.05024 39947 ft 502 kts 131°
2026-05-05 13:06 36.38702 49.12338 39960 ft 502 kts 131°
2026-05-05 13:06 36.34930 49.19646 39663 ft 504 kts 131°
2026-05-05 13:07 36.33029 49.23319 39022 ft 506 kts 131°
2026-05-05 13:07 36.31123 49.27002 38355 ft 507 kts 130°
2026-05-05 13:07 36.29219 49.30682 37730 ft 506 kts 130°
2026-05-05 13:07 36.27320 49.34356 37097 ft 505 kts 131°
2026-05-05 13:08 36.25422 49.38017 36468 ft 503 kts 130°
2026-05-05 13:08 36.23528 49.41659 35910 ft 501 kts 130°
2026-05-05 13:08 36.21643 49.45283 35295 ft 501 kts 130°
2026-05-05 13:08 36.19753 49.48913 34661 ft 500 kts 130°
2026-05-05 13:09 36.17868 49.52530 34056 ft 499 kts 130°
2026-05-05 13:09 36.15983 49.56157 33320 ft 500 kts 130°
2026-05-05 13:09 36.14091 49.59775 32548 ft 500 kts 130°
2026-05-05 13:09 36.12201 49.63384 31838 ft 500 kts 130°
2026-05-05 13:10 36.10309 49.67002 31089 ft 501 kts 130°
2026-05-05 13:10 36.08412 49.70625 30371 ft 501 kts 129°
2026-05-05 13:10 36.06514 49.74247 29569 ft 502 kts 129°
2026-05-05 13:10 36.04612 49.77875 28690 ft 502 kts 129°
2026-05-05 13:11 36.02709 49.81492 27864 ft 501 kts 129°
2026-05-05 13:11 36.00818 49.85090 27348 ft 495 kts 129°
2026-05-05 13:11 35.98951 49.88620 26879 ft 487 kts 130°
2026-05-05 13:11 35.97020 49.92008 26414 ft 478 kts 132°
2026-05-05 13:12 35.95087 49.95328 26006 ft 475 kts 133°
2026-05-05 13:12 35.93158 49.98626 25481 ft 471 kts 132°
2026-05-05 13:12 35.91247 50.01885 24998 ft 467 kts 132°
2026-05-05 13:12 35.89351 50.05122 24535 ft 463 kts 132°
2026-05-05 13:13 35.87473 50.08329 24064 ft 459 kts 132°
2026-05-05 13:13 35.85636 50.11465 23637 ft 455 kts 132°
2026-05-05 13:13 35.83786 50.14618 23121 ft 451 kts 132°
2026-05-05 13:13 35.81957 50.17734 22644 ft 447 kts 132°
2026-05-05 13:14 35.80142 50.20826 22196 ft 442 kts 133°
2026-05-05 13:14 35.78346 50.23885 21733 ft 438 kts 133°
2026-05-05 13:14 35.76566 50.26907 21294 ft 433 kts 133°
2026-05-05 13:14 35.74803 50.29897 20854 ft 429 kts 133°
2026-05-05 13:15 35.73056 50.32856 20424 ft 425 kts 133°
2026-05-05 13:15 35.71322 50.35795 19980 ft 422 kts 133°
2026-05-05 13:15 35.69595 50.38708 19502 ft 420 kts 132°
2026-05-05 13:15 35.67880 50.41605 19074 ft 417 kts 132°
2026-05-05 13:16 35.66178 50.44486 18637 ft 415 kts 133°
2026-05-05 13:16 35.64482 50.47355 18201 ft 413 kts 133°
2026-05-05 13:16 35.62795 50.50199 17710 ft 410 kts 132°
2026-05-05 13:16 35.61118 50.53024 17255 ft 407 kts 132°
2026-05-05 13:17 35.59452 50.55830 16800 ft 404 kts 132°
2026-05-05 13:17 35.57801 50.58605 16365 ft 401 kts 132°
2026-05-05 13:17 35.56158 50.61365 15943 ft 398 kts 131°
2026-05-05 13:17 35.54527 50.64107 15497 ft 396 kts 131°
2026-05-05 13:18 35.52909 50.66831 15072 ft 393 kts 132°
2026-05-05 13:18 35.51299 50.69535 14637 ft 391 kts 132°
2026-05-05 13:18 35.49694 50.72228 14209 ft 389 kts 132°
2026-05-05 13:18 35.48097 50.74898 13781 ft 386 kts 132°
2026-05-05 13:19 35.46510 50.77548 13281 ft 384 kts 131°
2026-05-05 13:19 35.44935 50.80179 12838 ft 381 kts 131°
2026-05-05 13:19 35.43371 50.82795 12380 ft 378 kts 131°
2026-05-05 13:19 35.41817 50.85392 11952 ft 376 kts 131°
2026-05-05 13:20 35.40274 50.87970 11536 ft 373 kts 131°
2026-05-05 13:20 35.38741 50.90527 11098 ft 371 kts 131°
2026-05-05 13:20 35.37222 50.93058 10827 ft 362 kts 130°
2026-05-05 13:20 35.35759 50.95501 10699 ft 348 kts 131°
2026-05-05 13:21 35.34348 50.97854 10580 ft 336 kts 130°
2026-05-05 13:21 35.32985 51.00120 10430 ft 326 kts 131°
2026-05-05 13:21 35.31667 51.02312 10330 ft 314 kts 131°
2026-05-05 13:21 35.30395 51.04426 10233 ft 302 kts 131°
2026-05-05 13:22 35.29198 51.06502 10090 ft 296 kts 123°
2026-05-05 13:22 35.28480 51.08846 9978 ft 295 kts 104°
2026-05-05 13:22 35.28327 51.11355 9842 ft 296 kts 93°
2026-05-05 13:22 35.28340 51.13885 9504 ft 297 kts 92°
2026-05-05 13:23 35.28375 51.16412 9189 ft 296 kts 92°
2026-05-05 13:23 35.28401 51.18935 8883 ft 294 kts 92°
2026-05-05 13:23 35.28416 51.21441 8577 ft 293 kts 92°
2026-05-05 13:23 35.28422 51.23934 8289 ft 291 kts 92°
2026-05-05 13:24 35.28423 51.26409 7996 ft 290 kts 92°
2026-05-05 13:24 35.28423 51.28876 7706 ft 289 kts 92°
2026-05-05 13:24 35.28424 51.31333 7401 ft 287 kts 92°
2026-05-05 13:24 35.28424 51.32950 7205 ft 286 kts 92°
2026-05-05 13:25 35.28422 51.34562 7023 ft 285 kts 91°
2026-05-05 13:25 35.31285 51.39535 6123 ft 262 kts
2026-05-05 13:25 35.33027 51.39535 5957 ft 243 kts 338°
2026-05-05 13:26 35.34407 51.38505 5970 ft 229 kts 312°
2026-05-05 13:26 35.35484 51.37077 5943 ft 228 kts 307°
2026-05-05 13:26 35.36240 51.35429 5931 ft 217 kts 286°
2026-05-05 13:26 35.36665 51.33744 5950 ft 198 kts 283°
2026-05-05 13:27 35.37043 51.32156 5760 ft 190 kts 283°
2026-05-05 13:27 35.37431 51.30632 5520 ft 183 kts 284°
2026-05-05 13:27 35.37824 51.29183 5289 ft 175 kts 284°
2026-05-05 13:27 35.38205 51.27807 5063 ft 167 kts 285°
2026-05-05 13:28 35.38581 51.26456 4880 ft 167 kts 287°
2026-05-05 13:28 35.38957 51.25115 4674 ft 166 kts 285°
2026-05-05 13:28 35.39327 51.23772 4478 ft 166 kts 285°
2026-05-05 13:28 35.39696 51.22434 4256 ft 165 kts 285°
2026-05-05 13:29 35.40066 51.21099 4089 ft 165 kts 285°
2026-05-05 13:29 35.40438 51.19763 3838 ft 165 kts 284°
2026-05-05 13:29 35.40805 51.18435 3620 ft 164 kts 285°
2026-05-05 13:29 35.41170 51.17125 3397 ft 159 kts 285°
2026-05-05 13:30 35.41511 51.15905 3275 ft 140 kts 286°
2026-05-05 13:30 35.41738 51.15071 3295 ft 66 kts 288°
2026-05-05 13:30 35.41844 51.14685 3297 ft 40 kts 289°
2026-05-05 13:30 35.41917 51.14414 3295 ft 24 kts 283°
2026-05-05 13:31 35.41922 51.14213 3294 ft 22 kts 263°
2026-05-05 13:31 35.41899 51.14054 3295 ft 18 kts 259°
2026-05-05 13:31 35.41874 51.13935 3296 ft 8 kts 235°
2026-05-05 13:31 35.41820 51.13895 3296 ft 9 kts 192°
2026-05-05 13:32 35.41765 51.13925 3296 ft 10 kts 128°
2026-05-05 13:32 35.41735 51.14014 3296 ft 13 kts 109°
2026-05-05 13:32 35.41702 51.14132 3294 ft 17 kts 109°
2026-05-05 13:32 35.41669 51.14251 3293 ft 10 kts 109°
2026-05-05 13:33 35.41625 51.14295 3294 ft 8 kts 175°
2026-05-05 13:33 35.41566 51.14280 3295 ft 9 kts 198°
2026-05-05 13:33 35.41505 51.14257 3295 ft 8 kts 186°
2026-05-05 13:33 35.41459 51.14301 3295 ft 11 kts 118°
2026-05-05 13:34 35.41439 51.14363 3294 ft 13 kts 109°
2026-05-05 13:34 35.41407 51.14481 3293 ft 16 kts 109°
2026-05-05 13:34 35.41367 51.14625 3285 ft 20 kts 109°
2026-05-05 13:34 35.41317 51.14807 3279 ft 24 kts 109°
2026-05-05 13:35 35.41264 51.14999 3283 ft 22 kts 109°
2026-05-05 13:35 35.41217 51.15167 3278 ft 21 kts 109°
2026-05-05 13:35 35.41174 51.15323 3276 ft 7 kts 109°
2026-05-05 13:35 35.41161 51.15368 3278 ft 6 kts 111°
2026-05-05 13:36 35.41128 51.15392 3278 ft 6 kts 183°
2026-05-05 13:36 35.41098 51.15382 3278 ft 4 kts 198°
2026-05-05 13:36 35.41085 51.15377 3278 ft 0 kts 198°
2026-05-05 13:38 37.91569 44.66103 39758 ft 0 kts 122°
2026-05-05 13:39 35.40747 51.18642 3652 ft 0 kts 285°
2026-05-05 13:39 35.41439 51.16170 3285 ft 0 kts 285°
2026-05-05 13:39 35.41494 51.15975 3282 ft 0 kts 285°
2026-05-05 13:40 35.41443 51.16157 3282 ft 0 kts 285°
2026-05-05 13:40 35.41304 51.16655 3322 ft 0 kts 284°
2026-05-05 13:40 35.41368 51.16423 3292 ft 0 kts 285°
2026-05-05 13:41 35.41659 51.15355 3282 ft 0 kts 289°
2026-05-05 13:41 35.41539 51.15790 3281 ft 0 kts 288°
2026-05-05 13:41 35.41551 51.15749 3277 ft 0 kts 289°
2026-05-05 13:41 35.41757 51.15002 3296 ft 0 kts 288°
2026-05-05 13:42 35.41856 51.14645 3297 ft 0 kts 289°
2026-05-05 13:42 35.41921 51.14385 3295 ft 0 kts 279°
2026-05-05 13:42 35.41926 51.14341 3295 ft 0 kts 274°